• In Belarus
  • List of Countries
  • For 7 days
  • Water Temperature
  • Satellite Maps
  • Weather Map
  • Weather Widgets
  • user-avatar
    Login

    Hourly Weather Saint-Hyacinthe

    Today, 19 January, Friday

    Time Temperature Precipitation Wind Pressure Humidity
    00:00 -8°C° 0 mm 3 mps 756 mmHg 92%
    01:00 -9°C° 0 mm 4 mps 756 mmHg 93%
    02:00 -8°C° 0.1 mm 3 mps 756 mmHg 93%
    03:00 -8°C° 0.1 mm 3 mps 756 mmHg 93%
    04:00 -8°C° 0.1 mm 3 mps 756 mmHg 94%
    05:00 -8°C° 0 mm 3 mps 756 mmHg 94%
    06:00 -8°C° 0 mm 3 mps 756 mmHg 94%
    07:00 -9°C° 0 mm 3 mps 756 mmHg 94%
    08:00 -8°C° 0 mm 3 mps 756 mmHg 93%
    09:00 -7°C° 0 mm 3 mps 756 mmHg 92%
    10:00 -6°C° 0 mm 3 mps 756 mmHg 91%
    11:00 -5°C° 0 mm 3 mps 756 mmHg 90%
    12:00 -5°C° 0 mm 4 mps 755 mmHg 88%
    13:00 -4°C° 0 mm 4 mps 755 mmHg 87%
    14:00 -4°C° 0 mm 4 mps 755 mmHg 87%
    15:00 -4°C° 0 mm 3 mps 754 mmHg 88%
    16:00 -2°C° 0 mm 3 mps 754 mmHg 88%
    17:00 -4°C° 0 mm 3 mps 754 mmHg 89%
    18:00 -4°C° 0 mm 3 mps 754 mmHg 89%
    19:00 -4°C° 0 mm 3 mps 754 mmHg 89%
    20:00 -4°C° 0 mm 4 mps 753 mmHg 89%
    21:00 -5°C° 0 mm 4 mps 753 mmHg 89%
    22:00 -5°C° 0 mm 4 mps 752 mmHg 88%
    23:00 -5°C° 0 mm 4 mps 751 mmHg 88%

    Tomorrow, 20 January, Saturday

    Time Temperature Precipitation Wind Pressure Humidity
    00:00 -6°C° 0 mm 5 mps 751 mmHg 88%
    01:00 -5°C° 0 mm 5 mps 750 mmHg 88%
    02:00 -5°C° 0.3 mm 5 mps 749 mmHg 89%
    03:00 -4°C° 0.3 mm 6 mps 749 mmHg 89%
    04:00 -4°C° 0.3 mm 7 mps 748 mmHg 89%
    05:00 -3°C° 0.1 mm 7 mps 748 mmHg 88%
    06:00 -3°C° 0.1 mm 7 mps 748 mmHg 86%
    07:00 -3°C° 0.1 mm 7 mps 747 mmHg 85%
    08:00 -3°C° 0.1 mm 7 mps 748 mmHg 85%
    09:00 -2°C° 0.1 mm 8 mps 748 mmHg 85%
    10:00 -2°C° 0.1 mm 8 mps 748 mmHg 84%
    11:00 -1°C° 0 mm 8 mps 749 mmHg 87%
    12:00 -1°C° 0 mm 8 mps 749 mmHg 89%
    13:00 -1°C° 0 mm 8 mps 749 mmHg 91%
    14:00 -1°C° 0 mm 8 mps 750 mmHg 90%
    15:00 -1°C° 0 mm 7 mps 750 mmHg 90%
    16:00 -1°C° 0 mm 7 mps 751 mmHg 89%
    17:00 -1°C° 0 mm 7 mps 752 mmHg 88%
    18:00 -1°C° 0 mm 7 mps 753 mmHg 87%
    19:00 -1°C° 0 mm 7 mps 754 mmHg 86%
    20:00 -2°C° 0 mm 6 mps 754 mmHg 87%
    21:00 -1°C° 0 mm 5 mps 755 mmHg 87%
    22:00 -1°C° 0 mm 5 mps 756 mmHg 88%
    23:00 -2°C° 0.1 mm 4 mps 757 mmHg 87%

    Day after tomorrow, 21 January, Sunday

    Time Temperature Precipitation Wind Pressure Humidity
    00:00 -2°C° 0.1 mm 3 mps 757 mmHg 87%
    01:00 -3°C° 0.1 mm 2 mps 758 mmHg 86%
    02:00 -4°C° 0 mm 2 mps 758 mmHg 86%
    03:00 -3°C° 0 mm 1 mps 759 mmHg 86%
    04:00 -4°C° 0 mm 1 mps 759 mmHg 86%
    05:00 -5°C° 0 mm 0 mps 760 mmHg 86%
    06:00 -5°C° 0 mm 0 mps 760 mmHg 86%
    07:00 -5°C° 0 mm 0 mps 761 mmHg 86%
    08:00 -5°C° 0 mm 0 mps 761 mmHg 85%
    09:00 -4°C° 0 mm 0 mps 761 mmHg 85%
    10:00 -3°C° 0 mm 0 mps 761 mmHg 84%
    11:00 -2°C° 0.1 mm 1 mps 761 mmHg 86%
    12:00 -1°C° 0.1 mm 1 mps 760 mmHg 87%
    13:00 -1°C° 0.1 mm 1 mps 760 mmHg 88%
    14:00 0°C° 0.2 mm 1 mps 760 mmHg 91%
    15:00 0°C° 0.2 mm 1 mps 760 mmHg 93%
    16:00 0°C° 0.2 mm 1 mps 760 mmHg 95%
    17:00 0°C° 0.1 mm 1 mps 760 mmHg 96%
    18:00 0°C° 0.1 mm 1 mps 761 mmHg 96%
    19:00 -2°C° 0.1 mm 2 mps 761 mmHg 96%
    20:00 -2°C° 0.1 mm 2 mps 761 mmHg 95%
    21:00 -3°C° 0.1 mm 2 mps 762 mmHg 95%
    22:00 -4°C° 0.1 mm 3 mps 763 mmHg 94%
    23:00 -5°C° 0.1 mm 3 mps 763 mmHg 91%

    22 January, Monday

    Time Temperature Precipitation Wind Pressure Humidity
    00:00 -8°C° 0.1 mm 4 mps 764 mmHg 88%
    01:00 -9°C° 0.1 mm 4 mps 764 mmHg 86%
    02:00 -10°C° 0 mm 4 mps 765 mmHg 85%
    03:00 -11°C° 0 mm 4 mps 765 mmHg 84%
    04:00 -12°C° 0 mm 4 mps 766 mmHg 83%
    05:00 -14°C° 0 mm 4 mps 766 mmHg 83%
    06:00 -14°C° 0 mm 3 mps 767 mmHg 83%
    07:00 -15°C° 0 mm 3 mps 767 mmHg 83%
    08:00 -14°C° 0 mm 3 mps 768 mmHg 82%
    09:00 -14°C° 0 mm 3 mps 768 mmHg 81%
    10:00 -14°C° 0 mm 3 mps 768 mmHg 81%
    11:00 -13°C° 0 mm 3 mps 768 mmHg 81%
    12:00 -12°C° 0 mm 3 mps 767 mmHg 82%
    13:00 -10°C° 0 mm 3 mps 766 mmHg 83%
    14:00 -9°C° 0 mm 3 mps 766 mmHg 85%
    15:00 -8°C° 0 mm 3 mps 765 mmHg 86%
    16:00 -9°C° 0 mm 4 mps 765 mmHg 88%
    17:00 -8°C° 0.2 mm 4 mps 764 mmHg 89%
    18:00 -7°C° 0.2 mm 4 mps 764 mmHg 90%
    19:00 -6°C° 0.2 mm 5 mps 763 mmHg 91%
    20:00 -5°C° 1.7 mm 5 mps 762 mmHg 92%
    21:00 -4°C° 1.7 mm 4 mps 762 mmHg 93%
    22:00 -3°C° 1.7 mm 4 mps 761 mmHg 94%
    23:00 -2°C° 1.5 mm 4 mps 760 mmHg 94%

    23 January, Tuesday

    Time Temperature Precipitation Wind Pressure Humidity
    00:00 -1°C° 1.5 mm 4 mps 759 mmHg 93%
    01:00 -1°C° 1.5 mm 4 mps 758 mmHg 93%
    02:00 0°C° 2.1 mm 4 mps 757 mmHg 94%
    03:00 0°C° 2.1 mm 4 mps 756 mmHg 95%
    04:00 0°C° 2.1 mm 4 mps 755 mmHg 96%
    05:00 +1°C° 2.3 mm 4 mps 754 mmHg 96%
    06:00 +1°C° 2.3 mm 4 mps 753 mmHg 97%
    07:00 +1°C° 2.3 mm 4 mps 752 mmHg 97%
    08:00 +1°C° 1.4 mm 4 mps 751 mmHg 97%
    09:00 +1°C° 1.4 mm 4 mps 750 mmHg 97%
    10:00 +1°C° 1.4 mm 4 mps 749 mmHg 98%
    11:00 +2°C° 1.2 mm 3 mps 748 mmHg 98%
    12:00 +2°C° 1.2 mm 3 mps 747 mmHg 98%
    13:00 +2°C° 1.2 mm 3 mps 747 mmHg 99%
    14:00 +2°C° 0.4 mm 3 mps 746 mmHg 98%
    15:00 +2°C° 0.4 mm 3 mps 746 mmHg 98%
    16:00 +1°C° 0.4 mm 3 mps 746 mmHg 97%
    17:00 +1°C° 0 mm 3 mps 746 mmHg 95%
    18:00 0°C° 0 mm 3 mps 746 mmHg 92%
    19:00 0°C° 0 mm 3 mps 747 mmHg 90%
    20:00 0°C° 0.2 mm 3 mps 746 mmHg 90%
    21:00 -1°C° 0.2 mm 4 mps 746 mmHg 89%
    22:00 -1°C° 0.2 mm 4 mps 745 mmHg 89%
    23:00 -1°C° 0.2 mm 5 mps 746 mmHg 89%

    24 January, Wednesday

    Time Temperature Precipitation Wind Pressure Humidity
    00:00 -2°C° 0.2 mm 6 mps 746 mmHg 88%
    01:00 -2°C° 0.2 mm 7 mps 746 mmHg 88%
    02:00 -4°C° 0.1 mm 8 mps 747 mmHg 86%
    03:00 -5°C° 0.1 mm 8 mps 747 mmHg 84%
    04:00 -6°C° 0.1 mm 8 mps 748 mmHg 83%
    05:00 -8°C° 0.1 mm 8 mps 750 mmHg 83%
    06:00 -11°C° 0.1 mm 8 mps 751 mmHg 83%
    07:00 -13°C° 0.1 mm 8 mps 752 mmHg 83%
    08:00 -15°C° 0.1 mm 8 mps 754 mmHg 82%
    09:00 -14°C° 0.1 mm 7 mps 755 mmHg 81%
    10:00 -15°C° 0.1 mm 7 mps 756 mmHg 80%
    11:00 -15°C° 0 mm 7 mps 756 mmHg 80%
    12:00 -15°C° 0 mm 7 mps 757 mmHg 80%
    13:00 -15°C° 0 mm 7 mps 757 mmHg 80%
    14:00 -15°C° 0 mm 7 mps 758 mmHg 80%
    15:00 -15°C° 0 mm 7 mps 758 mmHg 80%
    16:00 -16°C° 0 mm 6 mps 759 mmHg 80%
    17:00 -16°C° 0 mm 6 mps 760 mmHg 81%
    18:00 -16°C° 0 mm 6 mps 761 mmHg 81%
    19:00 -17°C° 0 mm 5 mps 761 mmHg 82%
    20:00 -17°C° 0 mm 5 mps 762 mmHg 83%
    21:00 -17°C° 0 mm 5 mps 762 mmHg 83%
    22:00 -18°C° 0 mm 5 mps 762 mmHg 84%
    23:00 -18°C° 0 mm 5 mps 763 mmHg 84%
    Show more